軌道要素
Epoch 2009 Nov. 25.0 TT = JDT 2455160.5
T 2009 Nov. 14.27437 TT MPC
q 5.8751816 (2000.0) P Q
z +0.0028564 Peri. 336.35854 -0.87340882 -0.07073107
+/-0.0000018 Node 214.05810 -0.17809536 -0.87446815
e 0.9832181 Incl. 59.35572 -0.45325388 +0.47989850
From 302 observations 2009 Mar. 19-2012 July 23, mean residual 0".6.
|